GW0780 Weather Reports


time (UTC)temp
C
wind
direction
speed
KPH
gust
KPH
rain 1hr
cm
rain 24hr
cm
rain mn
cm
humidity
%
barometer
mb
20260902034517 12 0.0 0.0 0.00 0.00 0.00 95 1022.1
20260902033520 12 0.0 0.0 0.00 0.00 0.00 95 1022.1
20260902032523 12 0.0 0.0 0.00 0.00 0.00 95 1022.1
20260902031526 12 0.0 0.0 0.00 0.00 0.00 95 1022.1
20260902030530 12 0.0 0.0 0.00 0.00 0.00 95 1022.0
20260902025515 12 0.0 0.0 0.00 0.00 0.00 94 1022.1
20260902024519 12 0.0 0.0 0.00 0.00 0.00 94 1022.0
20260902023522 13 0.0 0.0 0.00 0.00 0.00 94 1022.1
20260902022519 13 0.0 0.0 0.00 0.00 0.00 94 1022.1
20260902021516 13 0.0 0.0 0.00 0.00 0.00 94 1022.1
20260902020532 13 0.0 0.0 0.00 0.00 0.00 94 1022.1
20260902015516 13 0.0 0.0 0.00 0.00 0.00 94 1022.1
20260902014520 13 0.0 0.0 0.00 0.00 0.00 94 1022.0
20260902013543 13 0.0 0.0 0.00 0.00 0.00 93 1022.0
20260902012526 13 0.0 0.0 0.00 0.00 0.00 93 1022.0
20260902011609 14 0.0 0.0 0.00 0.00 0.00 93 1021.9
20260902010532 14 0.0 0.0 0.00 0.00 0.00 93 1021.8
20260902005518 14 0.0 0.0 0.00 0.00 0.00 93 1021.7
20260902004521 14 0.0 0.0 0.00 0.00 0.00 92 1021.6
20260902003544 15 0.0 0.0 0.00 0.00 0.00 92 1021.5
20260902002548 15 0.0 0.0 0.00 0.00 0.00 91 1021.4
20260902001531 15 0.0 0.0 0.00 0.00 0.00 91 1021.4
20260902000516 15 0.0 0.0 0.00 0.00 0.00 91 1021.5
20260901235519 16 0.0 0.0 0.00 0.00 0.00 90 1021.3
20260901234522 16 0.0 0.0 0.00 0.00 0.00 89 1021.5
20260901233525 16 0.0 0.0 0.00 0.00 0.00 88 1021.3
20260901232529 16 0.0 0.0 0.00 0.00 0.00 88 1021.2
20260901231525 17 203 0.0 1.6 0.00 0.00 0.00 86 1021.2
20260901230522 17 0.0 0.0 0.00 0.00 0.00 85 1021.2
20260901225518 18 0.0 0.0 0.00 0.00 0.00 83 1021.0
20260901224516 18 201 1.6 4.8 0.00 0.00 0.00 82 1021.0
20260901223519 18 202 3.2 6.4 0.00 0.00 0.00 81 1020.7
20260901222522 18 198 3.2 6.4 0.00 0.00 0.00 79 1020.7
20260901221605 19 160 3.2 4.8 0.00 0.00 0.00 77 1020.6
20260901220528 19 203 4.8 6.4 0.00 0.00 0.00 77 1020.6
20260901215532 20 177 4.8 6.4 0.00 0.00 0.00 76 1020.6
20260901214517 20 171 4.8 6.4 0.00 0.00 0.00 75 1020.5
20260901213520 20 178 4.8 9.7 0.00 0.00 0.00 75 1020.5
20260901212524 20 207 4.8 6.4 0.00 0.00 0.00 74 1020.5
20260901211527 20 183 4.8 8.0 0.00 0.00 0.00 73 1020.4
20260901210550 20 180 6.4 9.7 0.00 0.00 0.00 72 1020.2
20260901205515 21 185 4.8 8.0 0.00 0.00 0.00 71 1020.1
20260901204539 21 203 6.4 11.3 0.00 0.00 0.00 69 1020.0
20260901203523 21 224 6.4 12.9 0.00 0.00 0.00 68 1019.8
20260901202526 22 181 8.0 12.9 0.00 0.00 0.00 67 1019.8
20260901201528 22 200 6.4 8.0 0.00 0.00 0.00 66 1020.0
20260901200532 23 173 6.4 11.3 0.00 0.00 0.00 63 1020.1
20260901195515 23 205 8.0 12.9 0.00 0.00 0.00 62 1020.1
20260901194518 23 189 9.7 12.9 0.00 0.00 0.00 62 1020.2
20260901193521 23 215 8.0 14.5 0.00 0.00 0.00 62 1020.1
20260901192519 23 168 9.7 12.9 0.00 0.00 0.00 62 1020.1
20260901191516 23 191 8.0 11.3 0.00 0.00 0.00 61 1020.1
20260901190531 23 209 8.0 11.3 0.00 0.00 0.00 61 1020.1
20260901185516 23 143 8.0 12.9 0.00 0.00 0.00 61 1020.1
20260901184520 23 173 9.7 12.9 0.00 0.00 0.00 63 1020.1
20260901183523 23 194 9.7 12.9 0.00 0.00 0.00 63 1020.0
20260901182526 23 219 8.0 9.7 0.00 0.00 0.00 62 1020.0
20260901181529 24 139 8.0 12.9 0.00 0.00 0.00 62 1020.0
20260901180553 23 186 6.4 11.3 0.00 0.00 0.00 63 1020.0
20260901175538 24 201 8.0 12.9 0.00 0.00 0.00 63 1019.8
20260901174521 23 150 8.0 11.3 0.00 0.00 0.00 63 1020.0
20260901173523 25 184 3.2 6.4 0.00 0.00 0.00 61 1020.0
20260901172527 23 147 8.0 12.9 0.00 0.00 0.00 61 1020.0
20260901171530 24 172 6.4 9.7 0.00 0.00 0.00 59 1019.9
20260901170536 23 196 4.8 8.0 0.00 0.00 0.00 59 1019.8
20260901165519 24 154 4.8 8.0 0.00 0.00 0.00 58 1020.0
20260901164521 23 148 6.4 9.7 0.00 0.00 0.00 61 1020.0
20260901163545 23 163 3.2 6.4 0.00 0.00 0.00 62 1020.0
20260901162607 23 202 3.2 6.4 0.00 0.00 0.00 63 1020.1
20260901161524 22 152 4.8 8.0 0.00 0.00 0.00 64 1020.2
20260901160515 23 143 4.8 8.0 0.00 0.00 0.00 63 1020.2
20260901155518 22 198 4.8 8.0 0.00 0.00 0.00 64 1020.3
20260901154536 22 221 6.4 8.0 0.00 0.00 0.00 66 1020.3
20260901153525 22 144 4.8 8.0 0.00 0.00 0.00 65 1020.3
20260901152528 21 198 4.8 6.4 0.00 0.00 0.00 67 1020.3
20260901151531 20 121 4.8 6.4 0.00 0.00 0.00 68 1020.4
20260901150517 20 155 4.8 6.4 0.00 0.00 0.00 68 1020.5
20260901145520 21 188 4.8 8.0 0.00 0.00 0.00 68 1020.5
20260901144543 20 132 4.8 8.0 0.00 0.00 0.00 67 1020.5
20260901143547 21 149 6.4 6.4 0.00 0.00 0.00 67 1020.6
20260901142530 21 159 4.8 6.4 0.00 0.00 0.00 68 1020.7
20260901141515 20 103 4.8 6.4 0.00 0.00 0.00 69 1020.7
20260901140538 20 181 4.8 8.0 0.00 0.00 0.00 69 1020.6
20260901135522 19 89 6.4 6.4 0.00 0.00 0.00 70 1020.7
20260901134525 20 132 6.4 9.7 0.00 0.00 0.00 69 1020.6
20260901133528 20 151 6.4 9.7 0.00 0.00 0.00 69 1020.5
20260901132531 19 130 4.8 6.4 0.00 0.00 0.00 72 1020.4
20260901131517 19 100 4.8 6.4 0.00 0.00 0.00 71 1020.3
20260901130539 18 127 4.8 9.7 0.00 0.00 0.00 72 1020.3
20260901125543 18 123 4.8 9.7 0.00 0.00 0.00 70 1020.3
20260901124526 18 115 4.8 6.4 0.00 0.00 0.00 71 1020.5
20260901123524 19 71 3.2 6.4 0.00 0.00 0.00 71 1020.2
20260901122515 18 75 1.6 4.8 0.00 0.00 0.00 74 1020.4
20260901121518 18 73 3.2 6.4 0.00 0.00 0.00 74 1020.4
20260901120515 17 0.0 0.0 0.00 0.00 0.00 76 1020.2
20260901115525 16 0.0 0.0 0.00 0.00 0.00 79 1020.2
20260901114528 16 0.0 0.0 0.00 0.00 0.00 83 1020.0
20260901113531 14 0.0 0.0 0.00 0.00 0.00 88 1020.0
20260901112516 13 0.0 0.0 0.00 0.00 0.00 90 1020.0
20260901111519 12 0.0 0.0 0.00 0.00 0.00 92 1019.9
20260901110523 12 0.0 0.0 0.00 0.00 0.00 92 1019.7
20260901105526 12 0.0 0.0 0.00 0.00 0.00 92 1019.6
20260901104529 11 0.0 0.0 0.00 0.00 0.00 96 1019.5
20260901103533 11 0.0 0.0 0.00 0.00 0.00 96 1019.2
20260901102517 10 0.0 0.0 0.00 0.00 0.00 96 1019.4
20260901101521 10 0.0 0.0 0.00 0.00 0.00 96 1019.3
20260901100524 10 0.0 0.0 0.00 0.00 0.00 96 1019.2
20260901095528 10 0.0 0.0 0.00 0.00 0.00 96 1019.3
20260901094529 10 0.0 0.0 0.00 0.00 0.00 96 1019.3
20260901093532 9 0.0 0.0 0.00 0.00 0.00 96 1019.5
20260901092516 9 0.0 0.0 0.00 0.00 0.00 96 1019.5
20260901091519 9 0.0 0.0 0.00 0.00 0.00 96 1019.4
20260901090522 9 0.0 0.0 0.00 0.00 0.00 96 1019.4
20260901085519 9 0.0 0.0 0.00 0.00 0.00 95 1019.5
20260901084516 9 0.0 0.0 0.00 0.00 0.00 95 1019.4
20260901083531 9 0.0 0.0 0.00 0.00 0.00 95 1019.4
20260901082517 9 0.0 0.0 0.00 0.00 0.00 95 1019.6
20260901081540 9 0.0 0.0 0.00 0.00 0.00 95 1019.6
20260901080523 9 0.0 0.0 0.00 0.00 0.00 95 1019.5
20260901075526 10 0.0 0.0 0.00 0.00 0.00 95 1019.5
20260901074530 10 0.0 0.0 0.00 0.00 0.00 95 1019.6
20260901073515 10 0.0 0.0 0.00 0.00 0.00 95 1019.5
20260901072519 10 0.0 0.0 0.00 0.00 0.00 95 1019.6
20260901071521 10 0.0 0.0 0.00 0.00 0.00 95 1019.7
20260901070524 10 0.0 0.0 0.00 0.03 0.00 95 1019.7
20260901065527 10 0.0 0.0 0.00 0.03 0.00 95 1019.7
20260901064530 10 0.0 0.0 0.00 0.03 0.00 94 1019.7
20260901063515 10 0.0 0.0 0.00 0.03 0.00 94 1019.7
20260901062518 10 0.0 0.0 0.00 0.03 0.00 94 1019.7
20260901061522 10 0.0 0.0 0.00 0.03 0.00 94 1019.6
20260901060524 10 0.0 0.0 0.00 0.03 0.00 94 1019.6
20260901055528 10 0.0 0.0 0.00 0.03 0.00 94 1019.6
20260901054525 10 0.0 0.0 0.00 0.03 0.00 94 1019.6
20260901053524 10 0.0 0.0 0.00 0.03 0.00 94 1019.7
20260901052521 10 0.0 0.0 0.00 0.03 0.00 94 1019.7
20260901051517 10 0.0 0.0 0.00 0.03 0.00 94 1019.7
20260901050533 10 0.0 0.0 0.00 0.03 0.00 94 1019.7
20260901045537 10 0.0 0.0 0.00 0.03 0.00 94 1019.6
20260901044540 10 0.0 0.0 0.00 0.03 0.00 93 1019.7
20260901043524 10 0.0 0.0 0.00 0.03 0.00 93 1019.8
20260901042527 11 0.0 0.0 0.00 0.03 0.00 93 1019.8
20260901041530 11 0.0 0.0 0.00 0.03 0.00 93 1019.9
20260901040515 11 0.0 0.0 0.00 0.03 0.00 93 1020.0
20260901035518 11 0.0 0.0 0.00 0.03 0.03 92 1020.0